Weather Roundup
Issued by NWS

Home | Current Version | Previous Version | Graphics & Text | Print | Product List | Glossary Off
Versions: 1 2 3 4 5 6 7 8 9 10 11 12 13 14 15 16 17 18 19 20 21 22 23 24 25 26 27 28 29 30 31 32 33 34 35 36 37 38 39 40 41 42 43 44 45 46 47 48 49 50

000
NZUS93 KARX 272010
HRRWXR

CURRENT HOURLY OBSERVATIONS ACROSS
MUCH OF THE UPPER MISSISSIPPI VALLEY
NATIONAL WEATHER SERVICE LA CROSSE WI
300 PM CDT FRI MAR 27 2015


...SOUTHEAST MINNESOTA...


CITY           SKY/WX    TMP DP  RH WIND       PRES   REMARKS
ROCHESTER      SUNNY     27   8  44 NW5       30.19F WCI  22
ROCHESTER/MAYO FAIR      29   9  42 NW3       30.19F
WINONA         SUNNY     34  10  37 N5        30.21F WCI  30
AUSTIN         SUNNY     28  12  50 N5        30.19F WCI  23
ALBERT LEA     SUNNY     30  10  43 NE6       30.19F WCI  24
DODGE CENTER   SUNNY     27   9  46 CALM      30.19F
PRESTON        SUNNY     27   7  42 NW5       30.19F WCI  21
OWATONNA       SUNNY     28   7  40 CALM      30.20F
FARIBAULT      SUNNY     30   7  37 NW5       30.20F WCI  25
$$

...ELSEWHERE IN MINNESOTA...


CITY           SKY/WX    TMP DP  RH WIND       PRES   REMARKS
MINNEAPOLIS    MOSUNNY   34  -1  22 E8        30.19F WCI  27
INTNL FALLS    SUNNY     33   5  30 VRB5      30.13F WCI  29
DULUTH         SUNNY     28   8  43 SE10      30.14F WCI  19
RED WING       SUNNY     36   3  25 W7        30.19F WCI  30
REDWOOD FALLS  PTSUNNY   35  13  40 VRB6      30.16F WCI  30
MANKATO        MOSUNNY   30   9  40 SE3       30.20F
WORTHINGTON    PTSUNNY   34   5  29 CALM      30.15F
FAIRMONT       MOSUNNY   34   5  29 CALM      30.17F
$$

...SOUTHWEST WISCONSIN...


CITY           SKY/WX    TMP DP  RH WIND       PRES   REMARKS
LA CROSSE      SUNNY     34   9  35 W8        30.21F WCI  27
PRAIRIE DU CHI SUNNY     32   6  33 NW7       30.21S WCI  25
BOSCOBEL       SUNNY     33   7  33 VRB5      30.20F WCI  29
LONE ROCK      SUNNY     35   6  29 NE8       30.18F WCI  29
PLATTEVILLE    SUNNY     31  13  47 W7        30.18S WCI  24
FORT MC COY    SUNNY     34   5  29 NW6       30.18F WCI  29
CAMP DOUGLAS   SUNNY     34   5  29 NW10      30.17F WCI  26
VIROQUA        FAIR      30   9  41 W3        30.16F
WIS DELLS      SUNNY     32   1  26 SW3       30.16S
$$

...ELSEWHERE IN WISCONSIN...


CITY           SKY/WX    TMP DP  RH WIND       PRES   REMARKS
MILWAUKEE      MOSUNNY   28  11  48 NE16G25   30.17F WCI  16
MADISON        SUNNY     33   5  30 N9G16     30.16F WCI  25
GREEN BAY      SUNNY     28  12  51 NE13      30.19F WCI  17
EAU CLAIRE     SUNNY     34   5  29 N7        30.18F WCI  28
BLACK RVR FLS  FAIR      34   4  28 NW7       30.18F WCI  27
MEDFORD        SUNNY     28   5  37 CALM      30.14F
WAUSAU         SUNNY     29   6  38 W8        30.14F WCI  21
WIS RAPIDS     SUNNY     30   5  34 VRB3      30.19F
MARSHFIELD     SUNNY     30   8  39 N7G17     30.16F WCI  23
RICE LAKE      SUNNY     32   5  32 NE3       30.19F
$$

...NORTHEAST IOWA...


CITY           SKY/WX    TMP DP  RH WIND       PRES   REMARKS
DECORAH        SUNNY     28   7  40 N9        30.18F WCI  20
MASON CITY     SUNNY     35  10  35 CALM      30.19F
CHARLES CITY   SUNNY     32  10  40 N9        30.19F WCI  24
OELWEIN        SUNNY     32  10  40 VRB7G14   30.19F WCI  26
$$

...ELSEWHERE IN IOWA...


CITY           SKY/WX    TMP DP  RH WIND       PRES   REMARKS
DES MOINES     CLOUDY    40  10  29 E6        30.19F
IOWA CITY      SUNNY     36   7  29 W5        30.21F WCI  32
FORT DODGE     SUNNY     36  10  35 S3        30.19F
$$

...NORTHERN ILLINOIS...


CITY           SKY/WX    TMP DP  RH WIND       PRES   REMARKS
CHICAGO-OHARE  MOSUNNY   30  12  47 NE15      30.15F WCI  19
CHICAGO-MIDWAY PTSUNNY   31  11  43 NE17G23   30.16F WCI  19
MOLINE         SUNNY     36   8  31 NE8G17    30.18F WCI  30
ROCKFORD       MOSUNNY   34   5  29 N10G24    30.18F WCI  26
PEORIA         SUNNY     37   8  30 N10G25    30.17F WCI  30
$$

NOTE: "FAIR" INDICATES FEW OR NO CLOUDS BELOW 12,000 FEET WITH NO
SIGNIFICANT WEATHER AND/OR OBSTRUCTIONS TO VISIBILITY. WIND
SPEEDS ARE IN MILES-PER-HOUR.



USA.gov is the U.S. government's official web portal to all federal, state and local government web resources and services.